Regional Weather Roundup
Issued by NWS Albany, NY

Home | Current Version | Previous Version | Text Only | Print | Product List | Glossary On
Versions: 1 2 3 4 5 6 7 8 9 10 11 12 13 14 15 16 17 18 19 20 21 22 23 24 25 26 27
000
ASUS41 KALY 260210
RWRALY

NEW YORK STATE HOURLY WEATHER ROUNDUP
NATIONAL WEATHER SERVICE ALBANY NY
1000 PM EDT MON SEP 25 2017

NOTE: "FAIR" INDICATES FEW OR NO CLOUDS BELOW 12,000 FEET WITH NO
SIGNIFICANT WEATHER AND/OR NO OBSTRUCTIONS TO VISIBILITY.

NYZ032-033-038>043-046>054-057>066-NYZ062>081-082-084-260300-
EAST


CITY           SKY/WX    TMP DP  RH WIND       PRES   REMARKS
ALBANY         MOCLDY    74  67  78 CALM      30.03S
GLENS FALLS    CLEAR     69  66  90 W5        30.03S
POUGHKEEPSIE   MOCLDY    76  64  66 E3        30.03S
NEWBURGH       PTCLDY    77  66  69 VRB5      30.06S
MONTGOMERY     PTCLDY    70  68  93 CALM      30.04S
WHITE PLAINS   CLEAR     69  64  84 CALM      30.06S
ISLIP          FOG       68  67  96 CALM      30.05S VSB 1
NEW YORK CITY  PTCLDY    73  65  75 VRB5      30.05S
$$

NYZ005>009-017-018-044>046-055-056-260300-
CENTRAL


CITY           SKY/WX    TMP DP  RH WIND       PRES   REMARKS
FULTON         FOG       66  64  93 CALM      30.02F VSB 1/4
SYRACUSE       PTCLDY    71  70  96 CALM      30.01F
ROME           CLEAR     70  68  93 CALM      30.04F
ELMIRA         CLEAR     69  66  90 CALM      30.04F
BINGHAMTON     CLEAR     73  61  65 E3        30.08F
$$

NYZ026>034-041>043-087-260300-
NORTH


CITY           SKY/WX    TMP DP  RH WIND       PRES   REMARKS
WATERTOWN      CLEAR     64  64 100 E3        30.02S FOG
FORT DRUM      NOT AVBL
OGDENSBURG     FAIR      65  63  93 CALM      30.01S FOG
MASSENA        CLEAR     67  67 100 CALM      30.01F FOG
SARANAC LAKE   CLEAR     61  61 100 CALM      30.09F
PLATTSBURGH    CLEAR     68  65  90 CALM      30.01F
$$

NYZ001>004-010>016-019>021-085-260300-
WEST


CITY           SKY/WX    TMP DP  RH WIND       PRES   REMARKS
NIAGARA FALLS  PTCLDY    76  67  73 E6        30.00F
BUFFALO        PTCLDY    76  69  79 E6        30.01F
DUNKIRK        PTCLDY    69  67  93 CALM      30.01F
JAMESTOWN      PTCLDY    73  66  78 SE3       30.08F
WELLSVILLE     CLEAR     72  60  66 SE3       30.12S
ROCHESTER      PTCLDY    72  67  84 CALM      30.02F
PENN YAN       CLEAR     67  63  87 CALM      30.05F
$$

             KEY
       WCI = WIND CHILL INDEX
       VSB = VISIBILITY
       HX  = HEAT INDEX
$$




USA.gov is the U.S. government's official web portal to all federal, state and local government web resources and services.